Location: Wangen+im+Allg�u
(47.7098°N, 9.8383°E)
Time: 09:20:54
(UTC+01:00)

Amateur Radio Satellites - All Passes

Search period start: 22 January 2018 08:50
Search period end: 23 January 2018 08:50
Location: Wangen+im+Allg�u, 47.7098°N, 9.8383°E

Satellite Date Start Highest point End Downlink Frequencies (MHz)
Time Altitude Azimuth
AAUSAT CUBESAT 2 22 Jan 08:54:43 08:58:36 41° 290° (WNW) 09:02:27 437.432
HO-68 22 Jan 08:59:41 09:06:01 36° 302° (WNW) 09:12:21 435.675
RS-15 22 Jan 08:59:59 09:12:22 88° 125° (SE) 09:24:31 29.354- 29.394
CUTE-I 22 Jan 09:09:54 09:10:45 10° 310° (NW) 09:11:36 437.470
XW-2A 22 Jan 09:14:54 09:17:36 23° 293° (WNW) 09:20:17 145.665 - 145.685
FO-29 22 Jan 09:15:02 09:19:30 19° 270° (W) 09:23:40 435.910
SEEDS 22 Jan 09:18:21 09:20:21 13° 300° (WNW) 09:22:21 437.485
DELFI C3 22 Jan 09:20:00 09:23:23 27° 95° (E) 09:26:47 145.870
Oscar 11 22 Jan 09:21:43 09:25:59 57° 287° (WNW) 09:30:12 .
Max Valier Satellite 22 Jan 09:43:52 09:47:15 32° 97° (E) 09:50:35 145.860
EO-79 22 Jan 09:48:55 09:49:33 10° 56° (NE) 09:50:11 145.935-145.965
BEESAT 3 22 Jan 09:58:06 10:02:04 75° 125° (SE) 10:06:04 437.485
TIGRISAT 22 Jan 09:58:11 10:02:14 34° 264° (W) 10:06:25 435.000
AIST 2D 22 Jan 09:58:55 10:01:59 28° 69° (ENE) 10:05:02 435.315
EO-88 22 Jan 09:59:40 10:02:59 32° 97° (E) 10:06:15 145.990 - 145.960
PCSat 22 Jan 10:00:47 10:06:08 65° 119° (ESE) 10:11:31 145.827
UWE-3 22 Jan 10:01:34 10:02:50 11° 305° (NW) 10:04:05 435.000/436.395/437.385
PRISM 22 Jan 10:01:57 10:06:01 76° 74° (ENE) 10:10:05 437.425
UNISAT 6 22 Jan 10:14:33 10:18:05 23° 268° (W) 10:21:42 437.425
YUBILEINY 22 Jan 10:15:32 10:24:20 81° 80° (E) 10:33:02 435.215
O/OREOS (USA 219) 22 Jan 10:19:18 10:23:46 67° 248° (WSW) 10:28:12 437.305
POLYITAN 1 22 Jan 10:21:20 10:24:31 21° 63° (ENE) 10:27:43 437.675
ZACube-1 22 Jan 10:22:05 10:23:42 12° 304° (NW) 10:25:17 437.345
AO-73 22 Jan 10:28:10 10:29:38 11° 304° (NW) 10:31:07 145.935
NANOSAT C BR1 22 Jan 10:35:24 10:38:50 25° 65° (ENE) 10:42:18 145.865
BEESAT 2 22 Jan 10:49:09 10:53:09 69° 125° (SE) 10:57:12 435.950
QB50P2 22 Jan 10:50:09 10:54:09 42° 70° (ENE) 10:58:12 145.880/145.840
DELFI C3 22 Jan 10:54:43 10:58:05 28° 293° (WNW) 11:01:26 145.870
Oscar 19 22 Jan 11:04:22 11:06:02 12° 52° (NE) 11:07:42 437.125/150
LO-87 22 Jan 11:14:45 11:18:04 33° 97° (E) 11:21:23 145.935 - 145.965
RS-15 22 Jan 11:14:50 11:26:24 44° 334° (NNW) 11:37:39 29.354- 29.394
DUCHIFAT 1 22 Jan 11:17:30 11:21:36 55° 72° (ENE) 11:25:47 145.980
Max Valier Satellite 22 Jan 11:18:02 11:20:53 21° 294° (WNW) 11:23:43 145.860
EO-79 22 Jan 11:20:19 11:24:32 78° 73° (ENE) 11:28:49 145.935-145.965
AO-85 22 Jan 11:24:56 11:28:09 23° 114° (ESE) 11:31:32 145.980
SO-50 22 Jan 11:26:29 11:29:09 15° 23° (NNE) 11:31:49 436.795
AIST 2D 22 Jan 11:32:24 11:35:09 21° 266° (W) 11:37:54 435.315
EO-88 22 Jan 11:33:41 11:36:25 21° 295° (WNW) 11:39:10 145.990 - 145.960
BEESAT 3 22 Jan 11:37:06 11:40:03 19° 325° (NW) 11:42:59 437.485
PRISM 22 Jan 11:40:42 11:41:47 11° 272° (W) 11:42:53 437.425
PCSat 22 Jan 11:45:18 11:49:57 28° 320° (NW) 11:54:38 145.827
ESTCUBE 1 22 Jan 11:47:15 11:51:43 59° 101° (E) 11:56:08 437.505/2401.250
AO-7 22 Jan 11:52:52 11:56:54 15° 34° (NE) 12:00:55 .
POLYITAN 1 22 Jan 11:55:55 12:00:00 46° 261° (W) 12:04:08 437.675
AO-91 22 Jan 12:00:56 12:03:31 20° 65° (ENE) 12:06:13 145.960
NANOSAT C BR1 22 Jan 12:10:28 12:14:22 36° 263° (W) 12:18:20 145.865
YUBILEINY 22 Jan 12:13:33 12:20:07 25° 282° (WNW) 12:26:39 435.215
BUGSAT 1 22 Jan 12:13:39 12:17:37 52° 71° (ENE) 12:21:41 437.445
QB50P2 22 Jan 12:26:53 12:30:07 21° 268° (W) 12:33:23 145.880/145.840
BEESAT 2 22 Jan 12:28:11 12:31:16 21° 325° (NW) 12:34:23 435.950
Gurwin Techsat 1B 22 Jan 12:36:11 12:41:15 47° 68° (ENE) 12:46:20 435.225
Oscar 19 22 Jan 12:39:14 12:44:21 64° 72° (ENE) 12:49:31 437.125/150
LO-87 22 Jan 12:48:32 12:51:16 20° 294° (WNW) 12:54:00 145.935 - 145.965
DUCHIFAT 1 22 Jan 12:54:59 12:57:36 16° 270° (W) 13:00:15 145.980
EO-79 22 Jan 12:59:21 13:00:51 12° 273° (W) 13:02:20 145.935-145.965
SPROUT 22 Jan 13:03:18 13:07:38 90° 201° (SSW) 13:11:56 437.525
AO-85 22 Jan 13:04:21 13:08:15 45° 315° (NW) 13:12:30 145.980
SO-50 22 Jan 13:06:10 13:10:43 48° 45° (NE) 13:15:19 436.795
VELOX 1 22 Jan 13:17:01 13:21:25 68° 102° (ESE) 13:25:48 145.980
ESTCUBE 1 22 Jan 13:25:01 13:28:05 18° 299° (WNW) 13:31:09 437.505/2401.250
DX 1 22 Jan 13:29:28 13:32:39 20° 92° (E) 13:35:49 434.975-435.025
RS-15 22 Jan 13:31:56 13:42:45 35° 7° (N) 13:53:07 29.354- 29.394
PCSat 22 Jan 13:33:39 13:35:17 11° 345° (NNW) 13:36:54 145.827
AO-91 22 Jan 13:36:57 13:39:54 27° 265° (W) 13:42:59 145.960
AO-7 22 Jan 13:39:48 13:47:36 46° 58° (ENE) 13:55:27 .
50 SAT 22 Jan 13:48:30 13:51:01 22° 96° (E) 13:53:31 437.505
ITAMSAT 1 22 Jan 13:50:19 13:53:58 20° 58° (ENE) 13:57:38 435.822/435.867
BUGSAT 1 22 Jan 13:50:42 13:53:18 16° 269° (W) 13:55:56 437.445
Gurwin Techsat 1B 22 Jan 14:16:55 14:21:24 27° 266° (W) 14:25:55 435.225
Oscar 19 22 Jan 14:20:24 14:24:07 20° 269° (W) 14:27:52 437.125/150
SPROUT 22 Jan 14:41:10 14:42:50 12° 303° (WNW) 14:44:30 437.525
SO-50 22 Jan 14:46:58 14:51:00 29° 244° (WSW) 14:55:04 436.795
AO-85 22 Jan 14:47:41 14:49:51 13° 339° (NNW) 14:52:05 145.980
UKube-1 22 Jan 14:49:41 14:54:01 77° 105° (ESE) 14:58:20 .
VELOX 1 22 Jan 14:54:41 14:57:22 16° 300° (WNW) 15:00:02 145.980
DOVE 4 22 Jan 14:57:31 15:00:03 16° 61° (ENE) 15:02:34 437.250
DX 1 22 Jan 15:04:54 15:09:05 47° 290° (WNW) 15:13:14 434.975-435.025
ITUPSAT 1 22 Jan 15:06:48 15:10:33 22° 93° (E) 15:14:17 437.325
50 SAT 22 Jan 15:20:12 15:22:38 21° 293° (WNW) 15:25:03 437.505
PCSat 22 Jan 15:20:14 15:21:22 11° 12° (NNE) 15:22:30 145.827
MOZHAYETS 4 22 Jan 15:23:04 15:27:38 54° 100° (E) 15:32:09
ITAMSAT 1 22 Jan 15:27:46 15:32:55 70° 257° (WSW) 15:38:06 435.822/435.867
CUBESAT XI-V 22 Jan 15:30:55 15:34:10 19° 91° (E) 15:37:23 437.345
AO-7 22 Jan 15:32:15 15:40:18 51° 259° (W) 15:48:27 .
M-CUBED/EXP-1 PRIME 22 Jan 15:39:19 15:43:29 57° 67° (ENE) 15:47:23 437.505
BEESAT 22 Jan 15:44:51 15:49:32 49° 100° (E) 15:54:10 436.000
RS-15 22 Jan 15:46:29 15:58:16 59° 40° (NE) 16:09:23 29.354- 29.394
HO-68 22 Jan 16:00:13 16:03:58 15° 44° (NE) 16:07:44 435.675
LilacSat-2 22 Jan 16:10:16 16:12:13 14° 61° (ENE) 16:14:08 437.200
XW-2C 22 Jan 16:10:45 16:12:27 13° 61° (ENE) 16:14:07 145.795 - 145.815
UKube-1 22 Jan 16:27:13 16:29:27 14° 302° (WNW) 16:31:41 .
DOVE 4 22 Jan 16:33:10 16:37:21 59° 259° (W) 16:41:28 437.250
BEESAT 3 22 Jan 16:34:37 16:37:41 21° 36° (NE) 16:40:43 437.485
KAITUO 1B 22 Jan 16:40:00 16:42:34 18° 64° (ENE) 16:45:07 145.475/437.950
KKS-1 22 Jan 16:42:11 16:44:37 14° 89° (E) 16:47:04 437.445
XW-2F 22 Jan 16:43:51 16:46:59 24° 67° (ENE) 16:50:06 145.980 - 146.000
ITUPSAT 1 22 Jan 16:43:58 16:48:39 50° 291° (WNW) 16:53:16 437.325
NUDT-PHONESAT 22 Jan 16:47:48 16:50:33 20° 65° (ENE) 16:53:19 437.300
XW-2D 22 Jan 16:54:31 16:58:01 35° 70° (ENE) 17:01:31 145.860 - 145.880
NO-84 22 Jan 17:00:43 17:03:37 39° 140° (SE) 17:06:23 435.350 FM
MOZHAYETS 4 22 Jan 17:01:00 17:04:25 21° 298° (WNW) 17:07:48
PCSat 22 Jan 17:02:22 17:06:49 25° 37° (NE) 17:11:15 145.827
CUBESAT XI-V 22 Jan 17:07:21 17:11:52 55° 289° (WNW) 17:16:21 437.345
XW-2B 22 Jan 17:11:55 17:15:38 52° 73° (ENE) 17:19:22 145.730 - 145.750
CUTE-I 22 Jan 17:12:02 17:17:09 51° 69° (ENE) 17:22:18 437.470
M-CUBED/EXP-1 PRIME 22 Jan 17:15:25 17:18:05 16° 262° (W) 17:20:40 437.505
CUTE 1.7 + AOD 2 22 Jan 17:16:46 17:19:58 21° 64° (ENE) 17:23:09 437.475
BEESAT 22 Jan 17:23:13 17:27:00 24° 298° (WNW) 17:30:47 436.000
BEESAT 2 22 Jan 17:26:25 17:29:33 21° 36° (NE) 17:32:37 435.950
LilacSat-2 22 Jan 17:42:10 17:46:00 63° 259° (W) 17:49:50 437.200
XW-2C 22 Jan 17:42:17 17:46:06 68° 259° (W) 17:49:56 145.795 - 145.815
HO-68 22 Jan 17:43:19 17:50:17 58° 66° (ENE) 17:57:17 435.675
CUBEBUG 2 22 Jan 17:44:52 17:48:36 27° 65° (ENE) 17:52:28 437.445
UWE-3 22 Jan 17:47:37 17:50:41 18° 61° (ENE) 17:53:50 435.000/436.395/437.385
RS-15 22 Jan 17:59:31 18:10:43 55° 246° (WSW) 18:21:22 29.354- 29.394
ZACube-1 22 Jan 18:07:56 18:10:43 16° 60° (ENE) 18:13:32 437.345
AO-85 22 Jan 18:11:28 18:14:42 18° 29° (NNE) 18:18:04 145.980
BEESAT 3 22 Jan 18:11:40 18:15:34 62° 236° (SW) 18:19:23 437.485
KAITUO 1B 22 Jan 18:12:39 18:16:14 42° 262° (W) 18:19:49 145.475/437.950
AAUSAT CUBESAT 2 22 Jan 18:13:06 18:16:13 21° 64° (ENE) 18:19:19 437.432
AO-73 22 Jan 18:13:39 18:16:26 16° 60° (ENE) 18:19:15 145.935
XW-2A 22 Jan 18:16:46 18:18:53 16° 64° (ENE) 18:21:00 145.665 - 145.685
KKS-1 22 Jan 18:17:12 18:21:38 68° 288° (WNW) 18:26:04 437.445
XW-2F 22 Jan 18:17:37 18:20:58 29° 264° (W) 18:24:20 145.980 - 146.000
NUDT-PHONESAT 22 Jan 18:20:42 18:24:09 36° 263° (W) 18:27:39 437.300
STARS 22 Jan 18:28:20 18:32:45 66° 103° (ESE) 18:37:09 437.465
XW-2D 22 Jan 18:29:22 18:32:16 20° 267° (W) 18:35:11 145.860 - 145.880
SEEDS 22 Jan 18:35:19 18:39:32 77° 75° (ENE) 18:43:45 437.485
NO-84 22 Jan 18:38:04 18:40:48 33° 339° (NNW) 18:43:27 435.350 FM
Oscar 11 22 Jan 18:44:37 18:47:45 20° 63° (ENE) 18:50:54 .
PCSat 22 Jan 18:45:22 18:50:49 78° 239° (WSW) 18:56:14 145.827
XW-2B 22 Jan 18:48:02 18:50:06 14° 270° (W) 18:52:11 145.730 - 145.750
CUTE 1.7 + AOD 2 22 Jan 18:51:25 18:55:31 45° 262° (W) 18:59:37 437.475
CUTE-I 22 Jan 18:53:10 18:57:30 25° 267° (W) 19:01:50 437.470
BEESAT 2 22 Jan 19:03:38 19:07:39 67° 235° (SW) 19:11:34 435.950
STRAND 1 22 Jan 19:06:56 19:11:17 27° 94° (E) 19:15:38 437.568
CUBEBUG 2 22 Jan 19:20:58 19:25:04 37° 264° (W) 19:29:19 437.445
UWE-3 22 Jan 19:22:15 19:26:40 61° 260° (W) 19:31:15 435.000/436.395/437.385
HO-68 22 Jan 19:32:07 19:38:23 32° 266° (W) 19:44:42 435.675
ZACube-1 22 Jan 19:41:58 19:46:26 71° 258° (WSW) 19:51:01 437.345
AAUSAT CUBESAT 2 22 Jan 19:47:29 19:51:24 41° 262° (W) 19:55:21 437.432
AO-73 22 Jan 19:47:39 19:52:07 70° 259° (WSW) 19:56:41 145.935
XW-2A 22 Jan 19:48:02 19:51:16 39° 261° (W) 19:54:31 145.665 - 145.685
AO-85 22 Jan 19:51:09 19:55:59 63° 49° (NE) 20:01:09 145.980
STARS 22 Jan 20:05:50 20:08:36 17° 300° (WNW) 20:11:21 437.465
DELFI C3 22 Jan 20:08:16 20:11:29 25° 66° (ENE) 20:14:42 145.870
SEEDS 22 Jan 20:14:17 20:15:44 11° 273° (W) 20:17:11 437.485
NO-84 22 Jan 20:16:25 20:18:33 18° 359° (N) 20:20:39 435.350 FM
RS-15 22 Jan 20:16:57 20:20:00 11° 270° (W) 20:23:01 29.354- 29.394
FO-29 22 Jan 20:17:51 20:22:54 48° 99° (E) 20:27:58 435.910
Oscar 11 22 Jan 20:19:18 20:23:33 50° 261° (W) 20:27:49 .
Max Valier Satellite 22 Jan 20:25:40 20:28:46 25° 67° (ENE) 20:31:52 145.860
nSIGHT-1 22 Jan 20:26:05 20:28:59 34° 145° (SE) 20:31:54 .
PCSat 22 Jan 20:31:02 20:33:18 13° 258° (WSW) 20:35:34 145.827
EO-88 22 Jan 20:40:18 20:43:16 24° 67° (ENE) 20:46:16 145.990 - 145.960
STRAND 1 22 Jan 20:45:45 20:50:39 45° 292° (WNW) 20:55:32 437.568
ISS 22 Jan 20:46:21 20:49:22 36° 145° (SE) 20:52:25 437.550
ESTCUBE 1 22 Jan 21:16:32 21:18:03 12° 56° (NE) 21:19:34 437.505/2401.250
YUBILEINY 22 Jan 21:27:36 21:33:19 20° 75° (ENE) 21:39:00 435.215
AO-85 22 Jan 21:32:12 21:36:08 24° 246° (WSW) 21:40:14 145.980
DELFI C3 22 Jan 21:42:38 21:46:07 30° 264° (W) 21:49:36 145.870
TIGRISAT 22 Jan 21:45:34 21:50:02 40° 97° (E) 21:54:26 435.000
NO-84 22 Jan 21:53:43 21:56:19 31° 21° (NNE) 21:58:55 435.350 FM
LO-87 22 Jan 21:53:51 21:56:42 23° 66° (ENE) 21:59:34 145.935 - 145.965
Max Valier Satellite 22 Jan 21:59:14 22:02:29 28° 265° (W) 22:05:45 145.860
UNISAT 6 22 Jan 22:01:15 22:05:56 62° 101° (E) 22:10:35 437.425
nSIGHT-1 22 Jan 22:01:56 22:05:04 56° 344° (NNW) 22:08:12 .
FO-29 22 Jan 22:03:35 22:07:48 25° 299° (WNW) 22:11:59 435.910
EO-88 22 Jan 22:13:38 22:16:49 28° 264° (W) 22:20:00 145.990 - 145.960
ISS 22 Jan 22:22:34 22:25:47 56° 344° (NNW) 22:29:01 437.550
SPROUT 22 Jan 22:26:13 22:28:14 13° 58° (ENE) 22:30:16 437.525
VELOX 1 22 Jan 22:43:54 22:45:42 12° 57° (ENE) 22:47:29 145.980
ESTCUBE 1 22 Jan 22:49:34 22:54:05 79° 74° (ENE) 22:58:37 437.505/2401.250
AIST 2D 22 Jan 22:53:14 22:55:57 21° 94° (E) 22:58:39 435.315
PRISM 22 Jan 23:14:41 23:18:47 78° 104° (ESE) 23:22:51 437.425
YUBILEINY 22 Jan 23:19:54 23:28:44 83° 96° (E) 23:37:34 435.215
TIGRISAT 22 Jan 23:22:33 23:26:31 27° 295° (WNW) 23:30:28 435.000
LO-87 22 Jan 23:26:52 23:29:58 28° 264° (W) 23:33:08 145.935 - 145.965
NO-84 22 Jan 23:30:49 23:33:30 39° 220° (SW) 23:36:14 435.350 FM
POLYITAN 1 22 Jan 23:37:29 23:40:54 23° 93° (E) 23:44:17 437.675
nSIGHT-1 22 Jan 23:38:33 23:41:34 39° 4° (N) 23:44:35 .
UNISAT 6 22 Jan 23:38:53 23:42:11 19° 299° (WNW) 23:45:29 437.425
NANOSAT C BR1 22 Jan 23:51:04 23:54:44 27° 95° (E) 23:58:23 145.865
SPROUT 22 Jan 23:59:16 00:03:30 80° 255° (WSW) 00:07:49 437.525
ISS 22 Jan 23:59:30 00:02:37 40° 4° (N) 00:05:45 437.550
QB50P2 23 Jan 00:06:51 00:11:03 49° 100° (E) 00:15:12 145.880/145.840
UKube-1 23 Jan 00:13:46 00:15:48 13° 58° (ENE) 00:17:50 .
VELOX 1 23 Jan 00:17:03 00:21:27 89° 71° (ENE) 00:25:51 145.980
50 SAT 23 Jan 00:17:03 00:18:21 12° 63° (ENE) 00:19:40 437.505
AIST 2D 23 Jan 00:26:07 00:29:08 27° 291° (WNW) 00:32:06 435.315
DX 1 23 Jan 00:27:54 00:31:31 27° 65° (ENE) 00:35:10 434.975-435.025
ESTCUBE 1 23 Jan 00:29:29 00:31:27 13° 272° (W) 00:33:25 437.505/2401.250
DUCHIFAT 1 23 Jan 00:33:16 00:37:32 64° 102° (ESE) 00:41:44 145.980
O/OREOS (USA 219) 23 Jan 00:34:35 00:39:05 74° 113° (ESE) 00:43:34 437.305
EO-79 23 Jan 00:36:59 00:41:18 90° 286° (WNW) 00:45:36 145.935-145.965
Oscar 19 23 Jan 00:48:29 00:51:48 17° 89° (E) 00:55:05 437.125/150
Gurwin Techsat 1B 23 Jan 00:50:25 00:53:05 14° 87° (E) 00:55:44 435.225
PRISM 23 Jan 00:51:40 00:53:28 13° 301° (WNW) 00:55:16 437.425
MOZHAYETS 4 23 Jan 00:54:28 00:56:02 12° 55° (NE) 00:57:35
POLYITAN 1 23 Jan 01:12:47 01:16:49 40° 291° (WNW) 01:20:49 437.675
nSIGHT-1 23 Jan 01:14:48 01:17:59 84° 23° (NNE) 01:21:10 .
YUBILEINY 23 Jan 01:19:33 01:26:40 26° 300° (WNW) 01:33:47 435.215
BEESAT 23 Jan 01:19:45 01:21:57 13° 55° (NE) 01:24:10 436.000
AO-91 23 Jan 01:21:02 01:25:14 37° 98° (E) 01:29:48 145.960
NANOSAT C BR1 23 Jan 01:26:37 01:30:27 33° 293° (WNW) 01:34:17 145.865
BUGSAT 1 23 Jan 01:26:50 01:31:03 56° 101° (E) 01:35:13 437.445
ISS 23 Jan 01:36:03 01:39:20 88° 15° (NNE) 01:42:37 437.550
QB50P2 23 Jan 01:43:23 01:46:30 20° 297° (WNW) 01:49:35 145.880/145.840
50 SAT 23 Jan 01:46:46 01:49:42 41° 260° (W) 01:52:40 437.505
UKube-1 23 Jan 01:46:54 01:51:12 82° 257° (WSW) 01:55:32 .
VELOX 1 23 Jan 01:57:45 01:58:32 10° 273° (W) 01:59:18 145.980
DX 1 23 Jan 02:03:37 02:07:35 35° 262° (W) 02:11:35 434.975-435.025
DUCHIFAT 1 23 Jan 02:10:06 02:12:42 16° 300° (WNW) 02:15:17 145.980
EO-79 23 Jan 02:14:45 02:16:23 12° 303° (WNW) 02:18:00 145.935-145.965
O/OREOS (USA 219) 23 Jan 02:16:01 02:19:02 17° 313° (NW) 02:22:03 437.305
ITUPSAT 1 23 Jan 02:16:23 02:20:46 38° 67° (ENE) 02:25:12 437.325
Oscar 19 23 Jan 02:26:30 02:31:40 72° 288° (WNW) 02:36:48 437.125/150
MOZHAYETS 4 23 Jan 02:27:44 02:32:22 76° 74° (ENE) 02:37:02
Gurwin Techsat 1B 23 Jan 02:28:24 02:33:46 90° 286° (WNW) 02:39:05 435.225
CUBESAT XI-V 23 Jan 02:37:00 02:40:58 28° 65° (ENE) 02:44:55 437.345
nSIGHT-1 23 Jan 02:51:30 02:53:49 19° 221° (SW) 02:56:08 .
BEESAT 23 Jan 02:54:12 02:58:58 83° 73° (ENE) 03:03:47 436.000
AO-91 23 Jan 02:57:45 03:01:35 29° 293° (WNW) 03:05:45 145.960
BUGSAT 1 23 Jan 03:03:09 03:05:59 18° 299° (WNW) 03:08:49 437.445
ISS 23 Jan 03:13:06 03:15:28 19° 222° (SW) 03:17:50 437.550
AO-7 23 Jan 03:29:35 03:37:36 47° 100° (E) 03:45:32 .
ITAMSAT 1 23 Jan 03:37:20 03:41:57 31° 96° (E) 03:46:34 435.822/435.867
KKS-1 23 Jan 03:43:02 03:46:21 21° 62° (ENE) 03:49:41 437.445
ITUPSAT 1 23 Jan 03:54:31 03:58:40 29° 265° (W) 04:02:51 437.325
STARS 23 Jan 03:54:43 03:56:28 12° 56° (ENE) 03:58:14 437.465
MOZHAYETS 4 23 Jan 04:07:43 04:10:04 14° 272° (W) 04:12:26
Oscar 19 23 Jan 04:07:52 04:10:05 13° 307° (NW) 04:12:19 437.125/150
Gurwin Techsat 1B 23 Jan 04:09:47 04:12:59 16° 305° (NW) 04:16:10 435.225
CUBESAT XI-V 23 Jan 04:13:48 04:18:11 39° 263° (W) 04:22:35 437.345
DOVE 4 23 Jan 04:27:53 04:31:36 26° 95° (E) 04:35:27 437.250
BEESAT 23 Jan 04:35:11 04:37:22 13° 272° (W) 04:39:34 436.000
M-CUBED/EXP-1 PRIME 23 Jan 04:49:20 04:51:38 17° 99° (E) 04:53:54 437.505
FALCONSAT 3 23 Jan 05:02:52 05:04:21 12° 176° (S) 05:05:51 435.103
SO-50 23 Jan 05:03:40 05:07:50 41° 120° (ESE) 05:12:06 436.795
LilacSat-2 23 Jan 05:14:03 05:15:06 11° 88° (E) 05:16:08 437.200
ITAMSAT 1 23 Jan 05:16:39 05:21:29 40° 294° (WNW) 05:26:19 435.822/435.867
KKS-1 23 Jan 05:18:20 05:22:36 48° 260° (W) 05:26:54 437.445
AO-7 23 Jan 05:22:29 05:30:25 49° 301° (WNW) 05:38:18 .
CUTE-I 23 Jan 05:26:46 05:29:51 15° 88° (E) 05:32:56 437.470
STARS 23 Jan 05:27:45 05:32:06 88° 85° (E) 05:36:31 437.465
KAITUO 1B 23 Jan 05:41:06 05:43:10 14° 90° (E) 05:45:12 145.475/437.950
XW-2F 23 Jan 05:46:04 05:48:58 21° 93° (E) 05:51:50 145.980 - 146.000
NUDT-PHONESAT 23 Jan 05:47:47 05:50:06 16° 91° (E) 05:52:24 437.300
XW-2D 23 Jan 05:57:22 06:00:45 31° 96° (E) 06:04:06 145.860 - 145.880
DOVE 4 23 Jan 06:05:22 06:09:21 36° 291° (WNW) 06:13:30 437.250
XW-2B 23 Jan 06:14:53 06:18:32 47° 99° (E) 06:22:09 145.730 - 145.750
RS-15 23 Jan 06:17:46 06:25:59 21° 98° (E) 06:34:07 29.354- 29.394
M-CUBED/EXP-1 PRIME 23 Jan 06:23:09 06:26:11 31° 297° (WNW) 06:29:07 437.505
STRAND 1 23 Jan 06:25:51 06:30:48 54° 70° (ENE) 06:35:47 437.568
CUTE 1.7 + AOD 2 23 Jan 06:33:00 06:36:26 24° 93° (E) 06:39:51 437.475
FO-29 23 Jan 06:33:14 06:39:01 35° 65° (ENE) 06:44:16 435.910
FALCONSAT 3 23 Jan 06:42:20 06:42:31 10° 192° (SSW) 06:42:43 435.103
SO-50 23 Jan 06:44:17 06:48:22 34° 320° (NW) 06:52:33 436.795
XW-2C 23 Jan 06:45:20 06:49:06 73° 285° (WNW) 06:52:49 145.795 - 145.815
LilacSat-2 23 Jan 06:46:02 06:49:49 66° 285° (WNW) 06:53:32 437.200
HO-68 23 Jan 06:54:44 07:01:32 44° 98° (E) 07:08:18 435.675
CUTE-I 23 Jan 07:05:13 07:10:34 82° 286° (WNW) 07:15:54 437.470
CUBEBUG 2 23 Jan 07:07:42 07:12:11 39° 97° (E) 07:16:36 437.445
STARS 23 Jan 07:08:15 07:09:05 10° 273° (W) 07:09:55 437.465
UWE-3 23 Jan 07:08:45 07:12:31 24° 92° (E) 07:16:14 435.000/436.395/437.385
KAITUO 1B 23 Jan 07:13:50 07:17:24 47° 288° (WNW) 07:20:56 145.475/437.950
AO-7 23 Jan 07:16:53 07:21:14 15° 324° (NW) 07:25:34 .
XW-2F 23 Jan 07:19:46 07:23:08 32° 291° (WNW) 07:26:27 145.980 - 146.000
NUDT-PHONESAT 23 Jan 07:20:39 07:24:08 41° 289° (WNW) 07:27:36 437.300
AAUSAT CUBESAT 2 23 Jan 07:26:09 07:29:27 23° 93° (E) 07:32:43 437.432
ZACube-1 23 Jan 07:27:36 07:30:54 19° 90° (E) 07:34:08 437.345
UNISAT 6 23 Jan 07:30:02 07:31:28 11° 55° (NE) 07:32:54 437.425
YUBILEINY 23 Jan 07:31:42 07:35:01 12° 45° (NE) 07:38:18 435.215
XW-2D 23 Jan 07:31:48 07:34:46 22° 294° (WNW) 07:37:44 145.860 - 145.880
AO-73 23 Jan 07:32:57 07:36:12 19° 90° (E) 07:39:24 145.935
XW-2B 23 Jan 07:50:00 07:52:21 16° 297° (WNW) 07:54:42 145.730 - 145.750
SEEDS 23 Jan 07:51:04 07:55:15 86° 283° (WNW) 07:59:24 437.485
Oscar 11 23 Jan 08:03:24 08:06:53 23° 93° (E) 08:10:20 .
STRAND 1 23 Jan 08:06:20 08:10:18 23° 268° (W) 08:14:17 437.568
CUTE 1.7 + AOD 2 23 Jan 08:08:29 08:12:22 36° 291° (WNW) 08:16:12 437.475
FO-29 23 Jan 08:17:41 08:24:02 45° 261° (W) 08:29:42 435.910
SO-50 23 Jan 08:28:22 08:30:13 12° 343° (NNW) 08:32:06 436.795
PRISM 23 Jan 08:35:21 08:36:05 10° 57° (ENE) 08:36:50 437.425
XW-2A 23 Jan 08:38:22 08:41:42 62° 286° (WNW) 08:44:59 145.665 - 145.685
